Location: Rome
(43.2189°N, 75.4531°W)
Time: 09:49:20
(UTC+00:00)

Envisat - Visible Passes

Search period start: 04 December 2022 00:00
Search period end: 14 December 2022 00:00
Orbit: 763 x 765 km, 98.2° (Epoch: 03 December)

Date Brightness Start Highest point End Pass type
(mag) Time Alt. Az. Time Alt. Az. Time Alt. Az.
04 Dec 5.0 10:25:54 10° N 10:26:29 13° NNW 10:26:29 13° NNW visible
05 Dec 5.2 09:48:21 10° N 09:48:54 13° N 09:48:54 13° N visible
06 Dec 5.6 09:11:15 10° NNE 09:11:19 10° NNE 09:11:19 10° NNE visible
07 Dec 5.2 10:13:42 10° N 10:13:55 11° N 10:13:55 11° N visible
08 Dec 5.5 09:36:18 10° N 09:36:21 10° N 09:36:21 10° N visible
09 Dec 6.1 21:57:26 10° WSW 21:59:19 12° W 22:01:13 10° WNW visible
